Regional Weather Roundup
Issued by NWS

Home | Current Version | Previous Version | Text Only | Print | Product List | Glossary On
Versions: 1 2 3 4 5 6 7 8 9 10 11 12 13 14 15 16 17 18 19 20 21 22 23 24 25 26 27 28 29 30 31 32 33 34 35 36 37 38 39 40 41 42 43 44 45 46 47 48 49 50
000
ASUS43 KMKX 110811
RWRWI

WISCONSIN REGIONAL WEATHER ROUNDUP
NATIONAL WEATHER SERVICE MILWAUKEE/SULLIVAN WI
200 AM CST SUN DEC 11 2016

NOTE: "FAIR" INDICATES FEW OR NO CLOUDS BELOW 12,000 FEET WITH NO
SIGNIFICANT WEATHER AND/OR OBSTRUCTIONS TO VISIBILITY.

WIZ001-002-006>008-014>016-023>028-110900-
NORTHWEST WISCONSIN

CITY           SKY/WX    TMP DP  RH WIND       PRES   REMARKS
SUPERIOR ARPT  CLOUDY     9   3  77 SE5       30.20F WCI   1
ASHLAND        CLOUDY     5   1  83 SE3       30.21F
HAYWARD        CLOUDY    12   6  77 NE5       30.14F WCI   4
SIREN          FLURRIES  12   8  81 E3        30.13F
CUMBERLAND     LGT SNOW  12   9  85 E8        30.10F WCI   1
RICE LAKE      LGT SNOW  13  10  85 E8        30.13F WCI   2
CHETEK         LGT SNOW  13  10  87 E8        30.12F WCI   2
LADYSMITH      LGT SNOW  13   9  85 E6        30.15F WCI   3
EAU CLAIRE     LGT SNOW  15  12  88 E9        30.11F FOG     WCI   3
MENOMONIE      LGT SNOW  16  13  89 E8        30.11F WCI   5
NEW RICHMOND   LGT SNOW  14  10  83 E10       30.08F WCI   1
OSCEOLA        LGT SNOW  15  11  85 E7        30.12F WCI   5
$$

WIZ003>005-009-010-017-018-110900-
NORTH CENTRAL WISCONSIN

CITY           SKY/WX    TMP DP  RH WIND       PRES   REMARKS
MANITOWISH WTR FLURRIES   7   5  90 SE5       30.14F WCI  -1
ARBOR VITAE    LGT SNOW  11   7  83 CALM      30.15F
WOODRUFF       LGT SNOW  11   7  83 CALM      30.15F
RHINELANDER    CLOUDY     9   6  88 E7        30.15F WCI  -2
EAGLE RIVER    FLURRIES   8   3  80 CALM      30.15F
LAND O LAKES   CLOUDY     4   1  86 CALM      30.18S
PHILLIPS       FLURRIES   9   6  87 E3        30.14F
TOMAHAWK       LGT SNOW   9   6  87 CALM      30.16S
MEDFORD        LGT SNOW  11   7  85 E6        30.13F WCI   1
MERRILL        LGT SNOW  11   8  87 CALM      30.18S
$$

WIZ029-030-035-036-043>047-110900-
CENTRAL WISCONSIN

CITY           SKY/WX    TMP DP  RH WIND       PRES   REMARKS
WAUSAU         LGT SNOW  12   9  87 E7        30.16F FOG     WCI   1
MOSINEE        LGT SNOW  14  12  92 E7        30.17F WCI   4
MARSHFIELD     LGT SNOW  14  10  84 E9        30.12F FOG     WCI   2
STEVENS POINT  LGT SNOW  13  11  92 E6        30.18F WCI   4
WAUPACA        LGT SNOW  19  15  86 CALM      30.22F
WAUTOMA        LGT SNOW  17  15  92 E7        30.19F FOG     WCI   8
WISC RAPIDS    LGT SNOW  16  13  88 E7        30.17F FOG     WCI   6
CAMP DOUGLAS   LGT SNOW  18  16  93 E8        30.13F FOG     WCI   7
$$

WIZ011>013-019>022-031-037>040-048>050-110900-
NORTHEAST WISCONSIN

CITY           SKY/WX    TMP DP  RH WIND       PRES   REMARKS
ANTIGO         LGT SNOW  10   7  89 E3        30.17S
SHAWANO        LGT SNOW  17  13  84 E5        30.25S WCI   9
OCONTO         CLOUDY    14  11  87 CALM      30.27F
STURGEON BAY   LGT SNOW  16  12  84 SE3       30.27F FOG
GREEN BAY      LGT SNOW  19  16  88 E7        30.25F FOG     WCI  10
MANITOWOC      LGT SNOW  18  15  88 N3        30.26S FOG
APPLETON       LGT SNOW  19  16  86 E3        30.20F
CLINTONVILLE   LGT SNOW  18  12  79 E6        30.24R WCI   9
OSHKOSH        LGT SNOW  20  17  88 E3        30.21F VSB 1
$$

WIZ032>034-041-042-053>061-110900-
SOUTHWEST WISCONSIN

CITY           SKY/WX    TMP DP  RH WIND       PRES   REMARKS
LA CROSSE      LGT SNOW  19  16  88 SE5       30.11F FOG     WCI  12
SPARTA         SNOW      17  16  93 E6        30.13F VSB 1/2 WCI   9
VIROQUA        CLOUDY    18  17  95 E9        30.08F WCI   7
BOSCOBEL       LGT SNOW  22  19  89 NE3       30.13F VSB 1
PRAIRIE DU CHI LGT SNOW  22  19  87 E6        30.10F WCI  15
PLATTEVILLE    CLOUDY    22  22  99 E13       30.10F WCI  10
$$

WIZ056-057-062-063-064-067-068-110900-
SOUTH CENTRAL WISCONSIN

CITY           SKY/WX    TMP DP  RH WIND       PRES   REMARKS
REEDSBURG      LGT SNOW  19  18  98 E5        30.14F WCI  12
BARABOO/DELLS  LGT SNOW  19  17  92 E6        30.14F WCI  11
LONE ROCK      LGT SNOW  21  18  88 E10       30.14F FOG     WCI  10
MINERAL POINT  LGT SNOW  23  23 100 E9        30.10F WCI  13
MADISON        LGT SNOW  20  18  92 SE9       30.16F FOG     WCI   9
MIDDLETON      CLOUDY    22  20  91 SE10      30.15F WCI  11
WATERTOWN      LGT SNOW  21  20  98 SE7       30.18F WCI  12
MONROE         LGT SNOW  23  21  93 SE9       30.13F WCI  13
JANESVILLE     LGT SNOW  23  23 100 SE7       30.16F WCI  15
$$

WIZ051-052-058>065-066-070>072-110900-
SOUTHEAST WISCONSIN

CITY           SKY/WX    TMP DP  RH WIND       PRES   REMARKS
MILWAUKEE      LGT SNOW  24  20  84 S8        30.23F FOG     WCI  15
WAUKESHA       LGT SNOW  21  19  93 SE7       30.20F WCI  13
MILWAUKEE/TIMM LGT SNOW  23  19  86 S6        30.23F WCI  16
RACINE         LGT SNOW  24  20  84 S7        30.24F FOG     WCI  16
BURLINGTON     LGT SNOW  26  25  96 CALM      30.19F
KENOSHA        LGT SNOW  24  20  84 S10       30.22F VSB 1   WCI  14
FOND DU LAC    LGT SNOW  20  16  84 SE6       30.21F FOG     WCI  12
SHEBOYGAN      LGT SNOW  20  18  92 SW3       30.24S VSB 1
WEST BEND      LGT SNOW  21  21 100 SE3       30.21F
JUNEAU         LGT SNOW  19  18  93 E7        30.20F VSB 1   WCI  10
$$

LSZ147-162-110900-
LAKE SUPERIOR

STATION/POSITION TIME  TEMP    WIND        PRES    WAVE
                       AIR SEA DIR/SP/G            HT/PER
                 (UTC) (F)     (DEG/KT/KT) (MB)    (FT/S)
DEVILS ISLAND    0800   15     160/  3/  3 1024.8F
PORT WING        0740    8     130/  2/  4 1023.4F
SAXON HARBOR     0730    6     200/  4/  6 1023.7F
$$

LMZ867-665-643>646-110900-
LAKE MICHIGAN

STATION/POSITION TIME  TEMP    WIND        PRES    WAVE
                       AIR SEA DIR/SP/G            HT/PER
                 (UTC) (F)     (DEG/KT/KT) (MB)    (FT/S)
CHAMBERS ISLAND  0740   17     200/  2/  5 1024.7F
NORTHPORT PIER   0740   17      CALM  /  1 1025.4F
SISTER BAY       0750   17     170/  6/  7   N/A
ALGOMA LAKESHORE 0736          350/  6/  7   N/A
KEWAUNEE LAKESHO 0748   17     350/  2/  5 1024.2F
SHEBOYGAN LAKESH 0800   21     230/  3/  4 1025.3R
PORT WASHINGTON  0730   22     250/  4/  6 1025.1F
KENOSHA   LAKESH 0800   25     200/  9/ 11 1023.4
$$

TC  - TEMPERATURE IN CELSIUS
VSB - VISIBILITY IN STATUTE MILES
WCI - WIND CHILL INDEX
HX  - HEAT INDEX





USA.gov is the U.S. government's official web portal to all federal, state and local government web resources and services.